Weather History for Lebanon, NH

Change the Weather History Date:

Tuesday, October 23, 2012

  Actual Average Record
Temperature  
Mean Temperature 48 °F -  
Max Temperature 61 °F 57 °F 79 °F (1979)
Min Temperature 35 °F 35 °F 22 °F (1930)
Degree Days  
Heating Degree Days 18    
Moisture  
Dew Point 37 °F    
Average Humidity 78    
Maximum Humidity 93    
Minimum Humidity 49    
Precipitation  
Precipitation 0.00 in - - ()
Sea Level Pressure  
Sea Level Pressure 30.09 in    
Wind  
Wind Speed 1 mph (North)    
Max Wind Speed 8 mph    
Max Gust Speed -    
Visibility 9 miles    
Events      
Averages and records for this station are not official NWS values.
T = Trace of Precipitation, MM = Missing Value Source: NWS Daily Summary

Daily Weather History Graph

Daily Weather History Graph

Search for Another Location

Airport:

Trip Planner

Search our weather history database for the weather conditions in past years. The results will help you decide how hot, cold, wet, or windy it might be!

Date:

Astronomy

Oct. 23, 2012 Rise Set
Actual Time 7:13 AM EDT 5:52 PM EDT
Civil Twilight 6:44 AM EDT 6:21 PM EDT
Nautical Twilight 6:11 AM EDT 6:55 PM EDT
Astronomical Twilight 5:37 AM EDT 7:28 PM EDT
Moon 2:44 PM EDT 12:51 AM EDT
Length of Visible Light 11h 36m
Length of Day
10h 38m
Waxing Gibbous, 66% of the Moon is Illuminated
Oct 23
Waxing Gibbous
Oct 29
Full
Nov 6
Last Quarter
Nov 13
New
Nov 20
First Quarter

Hourly Weather History & Observations

Time (EDT) Temp. Windchill Dew Point Humidity Pressure Visibility Wind Dir Wind Speed Gust Speed Precip Events Conditions
12:53 AM 37.0 °F - 34.0 °F 89% 30.02 in 10.0 mi Calm Calm - N/A   Clear
1:53 AM 37.0 °F - 34.0 °F 89% 30.02 in 10.0 mi Calm Calm - N/A   Clear
2:53 AM 36.0 °F - 33.1 °F 89% 30.03 in 10.0 mi Calm Calm - N/A   Clear
3:53 AM 36.0 °F - 33.1 °F 89% 30.04 in 9.0 mi Calm Calm - N/A   Clear
4:53 AM 35.1 °F 31.0 °F 32.0 °F 89% 30.05 in 7.0 mi NNE 4.6 mph - N/A   Clear
5:53 AM 35.1 °F 32.2 °F 32.0 °F 89% 30.08 in 7.0 mi South 3.5 mph - N/A   Clear
6:53 AM 35.1 °F - 32.0 °F 89% 30.10 in 7.0 mi Calm Calm - N/A   Clear
7:53 AM 35.1 °F - 32.0 °F 89% 30.12 in 7.0 mi Calm Calm - N/A   Clear
8:53 AM 41.0 °F - 37.0 °F 86% 30.14 in 8.0 mi Calm Calm - N/A   Clear
9:53 AM 48.0 °F - 41.0 °F 77% 30.14 in 10.0 mi Calm Calm - N/A   Clear
10:53 AM 52.0 °F - 41.0 °F 66% 30.12 in 10.0 mi Calm Calm - N/A   Clear
11:53 AM 55.0 °F - 42.1 °F 62% 30.10 in 10.0 mi Calm Calm - N/A   Clear
1:53 PM 60.1 °F - 41.0 °F 49% 30.06 in 10.0 mi NNW 8.1 mph - N/A   Clear
2:53 PM 59.0 °F - 41.0 °F 51% 30.06 in 10.0 mi NNE 5.8 mph - N/A   Clear
3:53 PM 59.0 °F - 41.0 °F 51% 30.06 in 10.0 mi North 4.6 mph - N/A   Clear
4:53 PM 57.9 °F - 39.9 °F 51% 30.06 in 10.0 mi NW 5.8 mph - N/A   Clear
5:53 PM 50.0 °F - 41.0 °F 71% 30.08 in 10.0 mi Calm Calm - N/A   Clear
6:53 PM 44.1 °F - 39.0 °F 82% 30.10 in 10.0 mi Calm Calm - N/A   Clear
7:53 PM 44.1 °F - 39.0 °F 82% 30.11 in 10.0 mi Calm Calm - N/A   Clear
8:53 PM 44.1 °F - 39.9 °F 85% 30.13 in 10.0 mi Calm Calm - N/A   Clear
9:53 PM 37.9 °F - 35.1 °F 89% 30.14 in 9.0 mi Calm Calm - N/A   Clear
10:53 PM 37.0 °F - 35.1 °F 93% 30.15 in 10.0 mi Calm Calm - N/A   Clear
11:53 PM 37.0 °F - 34.0 °F 89% 30.16 in 9.0 mi Calm Calm - N/A   Clear